Regional Weather Roundup
Issued by NWS Newport/Morehead, NC

Current Version | Previous Version | Graphics & Text | Print | Product List | Glossary On
Versions: 1 2 3 4 5 6 7 8 9 10 11 12 13 14 15 16 17 18 19 20 21 22 23 24 25 26 27 28 29 30 31 32 33 34 35 36 37 38 39 40 41 42 43 44 45 46 47 48 49 50
335 ASUS42 KMHX 220824 RWRMHX WEATHER ROUNDUP FOR EASTERN NORTH CAROLINA NATIONAL WEATHER SERVICE NEWPORT/MOREHEAD CITY NC 400 AM EDT FRI MAY 22 2015 NOTE: "FAIR" INDICATES FEW OR NO CLOUDS BELOW 12,000 FEET WITH NO SIGNIFICANT WEATHER AND/OR OBSTRUCTIONS TO VISIBILITY NCZ015>017-031-032-045>047-102-103-220900- NORTH COAST CITY SKY/WX TMP DP RH WIND PRES REMARKS EDENTON MOCLDY 56 52 88 NE3 29.99S ELIZABETH CITY CLOUDY 57 52 83 NW9 29.99R KITTY HAWK CLOUDY 59 54 83 NW8 29.95R MANTEO CLOUDY 59 53 80 N15G21 29.98R $$ NCZ045>047-081-094-103-104-220900- CENTRAL COAST CITY SKY/WX TMP DP RH WIND PRES REMARKS FRISCO CLOUDY 61 55 81 VRB6 29.97R SWANQUARTER N/A 59 N/A N/A NW7 29.97R $$ NCZ095-097-098-100-101-220900- SOUTHERN COAST CITY SKY/WX TMP DP RH WIND PRES REMARKS BEAUFORT CLOUDY 60 57 89 N10 29.99R CEDAR ISLAND N/A 63 N/A N/A NW14G25 30.03R JACKSONVILLE PTCLDY 60 57 89 N7 29.99S PINEY ISLAND CLOUDY N/A N/A N/A N13 29.99R WILMINGTON MOCLDY 61 58 90 N8 30.00R $$ NCZ011>013-027>030-043-044-078>080-089-090>093-098-220900- COASTAL PLAIN CITY SKY/WX TMP DP RH WIND PRES REMARKS AHOSKIE PTCLDY 54 52 91 CALM 30.01S CLINTON CLOUDY 61 58 88 CALM 30.03R ELIZABETHTOWN CLOUDY 61 59 92 CALM 30.02R GOLDSBORO CLOUDY 60 55 85 N5 30.00R GREENVILLE CLOUDY 57 54 88 N5 30.03R HAVELOCK CLOUDY 61 55 81 N13 30.00R KENANSVILLE CLOUDY 59 55 88 N5 30.03R KINSTON MOCLDY 59 55 85 N7 30.03R NEW BERN CLOUDY 60 55 83 N7 30.01S RICHLANDS MOCLDY 59 54 82 NW6 30.02R ROCKY MOUNT CLOUDY 58 55 90 N5 30.02R WASHINGTON N/A N/A N/A N/A CALM 30.02R WHITEVILLE CLOUDY 64 56 76 N5 30.01R $$ AMZ130-135-150-152-154-156-158-170-250-252-270-ANZ085-086-088-633-658-670-220900- MARINE OBSERVATIONS STATION/POSITION TIME TEMP WIND PRES WAVE SWELL AIR SEA DIR/SP/G HT/PER HT/PER (UTC) (F) (DEG/KT/KT) (MB) (FT/S) (FT/S) CHESAPEAKE LIGHT 0800 58 340/ 28/ 30 1014.5 64 E VA BEACH 0750 58 61 340/ 25/ 31 1011.7 7/ 7 2/12 DUCK 0800 60 66 330/ 25/ 28 1012.9 2 E DUCK 0711 65 N/A 5/ 7 OREGON INLET 0800 59 68 330/ 11/ 15 1014.7 13E OREGON INLT 0800 61 N/A 7/ 6 HATTERAS CG 0800 63 73 320/ 15/ 18 1014.5 DIAMOND BUOY 0750 65 76 350/ 17/ 21 1014.0 4/ 6 2/ 9 CAPE LOOKOUT 0800 62 340/ 11/ 15 1015.4 BEAUFORT LAB 0800 62 74 360/ 9/ 15 1014.9 27 SE WRIGHTSVLE 0800 64 78 10/ 17/ 19 N/A 5 SE WRIGHTSVLE 0708 65 76 360/ 14/ 19 1015.0 225 S CAPE HAT 0750 75 74 240/ 14/ 16 1014.0 4/ 6 2/ 9 41 SE CHARLESTON 0750 75 76 40/ 17/ 21 1013.0 3/ 5 2/ 8 $$

USA.gov is the U.S. government's official web portal to all federal, state and local government web resources and services.